(145) Adeona(145) Adeona Epoch 2007 Oct. 27.0 TT = JDT 2454400.5 Goffin M 231.05717 (2000.0) P Q n 0.22564445 Peri. 44.84166 -0.51762333 -0.82852863 a 2.6721015 Node 77.45467 +0.71077335 -0.55533864 e 0.1449869 Incl. 12.63739 +0.47630592 -0.07168888 P 4.37 H 8.13 G 0.15 U 0 From 212 observations at 47 oppositions, 1875-1996, mean residual 0".55.An explanation of the orbital elements is available.
These orbital elements are also available in forms suitable for loading into a number of popular planetarium-type software programs.
Personalized ephemerides for this object (and others) can be generated using the MPES.
Date TT R. A. (2000) Decl. Delta r Elong. Phase V 2008 11 06 05 13.38 +18 46.0 1.548 2.426 144.7 13.7 11.8 2008 11 11 05 10.40 +19 04.7 1.509 2.419 150.4 11.7 11.7 2008 11 16 05 06.70 +19 24.3 1.475 2.413 156.2 9.5 11.5 2008 11 21 05 02.35 +19 44.7 1.447 2.407 162.2 7.2 11.4 2008 11 26 04 57.46 +20 05.7 1.426 2.401 168.4 4.8 11.2 2008 12 01 04 52.17 +20 27.1 1.411 2.395 174.5 2.3 11.0 2008 12 06 04 46.66 +20 48.6 1.404 2.389 178.0 0.8 10.9 2008 12 11 04 41.12 +21 10.1 1.403 2.383 172.4 3.1 11.1 2008 12 16 04 35.74 +21 31.5 1.410 2.377 166.2 5.7 11.2 2008 12 21 04 30.70 +21 52.6 1.424 2.372 160.0 8.2 11.3 2008 12 26 04 26.15 +22 13.6 1.443 2.367 153.9 10.5 11.5